www.pogodaiklimat.ru
ПОГОДА в Аннаполисе
Время
и дата
09:54 29.01
10:54 29.01
11:54 29.01
12:54 29.01
13:54 29.01
14:54 29.01
15:54 29.01
16:54 29.01
17:07 29.01
17:54 29.01
18:54 29.01
19:54 29.01
20:16 29.01
20:54 29.01
21:54 29.01
22:54 29.01
23:54 29.01
00:54 30.01
01:54 30.01
02:54 30.01
03:54 30.01
04:54 30.01
05:54 30.01
06:54 30.01
07:54 30.01
08:54 30.01
09:54 30.01
10:54 30.01
11:54 30.01
12:54 30.01
13:54 30.01
14:54 30.01
15:54 30.01
16:54 30.01
17:54 30.01
18:54 30.01
19:54 30.01
20:54 30.01
21:54 30.01
22:54 30.01
23:54 30.01
00:54 31.01
01:54 31.01
02:54 31.01
03:54 31.01
04:54 31.01
05:54 31.01
06:54 31.01
Ветер
(напр.,м/с)
Видим. Явления Облачность Т
(С)
Тd
(С)
f
(%)
Тe
(С)
Тes
(С)
Комфортность P
(гПа)
Po
(гПа)
Тmin
(С)
Tmax
(С)
R
(мм)
R24
(мм)
S
(см)
Ю 5 16 км ясно +8.3 +1.1 60 +5 +6 1024.7 1024.5
Ю 3 16 км 8/0 3000 m
[Ac]
+8.9 +2.2 63 +7 +8 1024.6 1024.1
нст 3 16 км 10/0 3000 m
[Ac]
+10.0 +1.7 56 +8 +10 1023.4 1023.1
ЮЗ 4 16 км слабый дождь 10/0 2700 m
[Ac As]
+10.6 +1.1 52 +8 +10 1022.1 1021.8 +6.1 +11.7
ЮЗ 3 16 км слабый дождь 10/0 2550 m
[Ac As]
+10.0 +2.2 58 +8 +10 1021.3 1021.1
нст 3
{8}
16 км 10/0 2850 m
[Ac]
+10.0 +2.8 61 +8 +9 1020.9 1020.4
ЮЗ 5 16 км 8/8 1500 м +9.4 +3.3 66 +6 +7 1021.5 1021.1
З 3
{8}
16 км 10/2 750 m
[Ac]
+9.4 +3.9 68 +7 +7 1021.9 1021.4
ЮЗ 4 16 км 10/8 750 m
[Ac]
+9.4 +4.4 71 +7 +7 1021.4
Ю 2 16 км 10/10 660 м +9.4 +5.0 74 +8 +8 1021.7 1021.4
З 2 16 км 10/8 600 m
[Ac]
+8.9 +5.0 77 +7 +7 1022.2 1021.8 +8.9 +10.6
З 4 16 км 10/8 600 m
[Ac]
+8.9 +5.0 77 +6 +6 1022.9 1022.5
З 3 16 км 8/5 600 m
[Ac]
+8.9 +5.0 77 +7 +7 1022.5
нст 2 16 км ясно +8.3 +5.0 80 +6 +6 1022.9 1022.5
нст 2 16 км ясно +8.3 +4.4 76 +7 +7 1023.0 1022.8
штиль 0 16 км ясно +7.8 +4.4 79 +7 +7 1022.8 1022.5
штиль 0 16 км ясно +6.7 +3.9 82 +6 +6 1022.8 1022.5
штиль 0 16 км ясно +6.1 +4.4 89 +5 +5 1022.9 1022.5 +5.6 +8.9
ЮВ 3 16 км ясно +5.6 +3.9 89 +2 +2 1021.7 1021.4
штиль 0 16 км ясно +5.6 +4.4 92 +5 +5 1022.8 1022.5
штиль 0 16 км ясно +5.0 +3.9 93 +4 +4 1022.1 1021.8
штиль 0 16 км 2/2 1950 м +5.0 +4.4 96 +4 +4 1022.8 1022.5
штиль 0 16 км 2/2 1950 м +5.0 +3.9 93 +4 +4 1022.6 1022.1
штиль 0 16 км ясно +5.6 +4.4 92 +5 +5 1022.3 1022.1 +5.0 +6.1
н/о н/о +5.6 +4.4 92 +5 +5 1022.6 1022.1
штиль 0 16 км ясно +5.6 +5.0 96 +4 +5 1023.5 1023.1
штиль 0 16 км 10/10 1350 м +6.7 +4.4 85 +6 +6 1023.5 1023.1
штиль 0 16 км 10/10 1380 м +8.3 +5.0 80 +8 +8 1023.1 1022.8
В 3 16 км 8/8 1500 м +7.8 +5.0 82 +5 +6 1022.2 1021.8
ЮВ 4 16 км 10/10 1500 м +8.9 +5.0 77 +6 +6 1021.2 1020.8 +5.0 +8.9
ЮВ 6 16 км 5/5 1500 м +8.3 +4.4 76 +4 +6 1020.0 1019.7
ЮВ 4 16 км ясно +12.2 +3.9 57 +10 +14 1019.1 1018.7
Ю 5 16 км 2/0 3300 m
[Ac]
+12.2 +4.4 59 +10 +11 1019.3 1019.1
Ю 3 16 км ясно +11.1 +4.4 63 +9 +10 1019.8 1019.4
Ю 3 16 км ясно +10.0 +3.9 66 +8 +8 1020.0 1019.7
штиль 0 16 км ясно +7.8 +4.4 79 +7 +7 1020.1 1019.7 +7.8 +13.3
ЮВ 3 16 км ясно +6.7 +4.4 85 +4 +4 1019.7 1019.4
ЮВ 2 16 км ясно +7.2 +5.0 86 +5 +5 1019.6 1019.4
ЮВ 2 16 км ясно +6.7 +5.0 89 +4 +4 1019.7 1019.4
ЮВ 3 16 км ясно +6.7 +5.0 89 +4 +4 1019.5 1019.1
Ю 2 16 км ясно +7.2 +5.0 86 +5 +5 1019.1 1018.7
штиль 0 16 км ясно +6.7 +4.4 85 +6 +6 1018.7 1018.4 +5.6 +7.8
ЮВ 2 13 км 2/0 2100 m
[Ac]
+5.6 +4.4 92 +3 +3 1018.4 1018.0
штиль 0 16 км ясно +6.7 +5.0 89 +6 +6 1017.5 1017.0
СЗ 2 13 км 2/0 3600 m
[Ac]
+6.1 +5.6 97 +3 +3 1018.0 1017.7
штиль 0 11 км 5/0 2100 m
[Ac]
+6.1 +5.0 93 +5 +5 1019.3 1018.7
СЗ 4 16 км 10/0 2100 m
[Ac]
+7.8 +5.6 86 +4 +4 1019.9 1019.4
С 3 16 км 8/0 2250 m
[Ac]
+8.3 +3.9 74 +6 +6 1021.3 1021.1 +5.0 +8.3
Местоположение метеостанции United States Naval Academy: широта 38.9913 долгота -76.4891 высота над уровнем моря 1 м.
В архиве по умолчанию представлена погода в Аннаполисе за последние 1-2 суток. Обновление информации о фактической погоде в базе происходит ежечасно! Архивные данные за месяц целиком и за предыдущие месяцы Вы можете получить, выбрав интересующий диапазон дат из раскрывающегося списка и нажав кнопку "Ввод!".
Внимание! Архив погоды МЕТАР в базе сайта по станциям, не включенным в климатический монитор, хранится не более 60 дней. Нет смысла пытаться выбрать более раннюю дату.
*Определитесь, кто Вы:
Внимание! Время в таблицах - местное (без учета летнего времени). Для получения всемирного времени необходимо вычесть поправку, которая равна -5 ч.
Смотрите также архив погоды в соседних городах и на ближайших метеорологических станциях:
Партнеры нашего сайта:      
Пояснения к столбцам:
  • Ветер - указаны скорость ветра в м/с - средняя за 10 мин, порывы в срок и между сроками (в фигурных скобках) и направление, откуда дует ветер: С - северный,
  • СВ - северо-восточный, В - восточный, ЮВ - юго-восточный, Ю - южный, ЮЗ - юго-западный, З - западный, СЗ - северо-западный.
  • Видимость - горизонтальная дальность видимости в метрах или километрах. При видимости от 1 до 10 км при отсутствии осадков обычно наблюдается дымка, при ухудшении видимости до 1 км и менее - туман. В сухую погоду видимость может ухудшаться дымом, пылью или мглою.
  • Явления - указаны атмосферные явления, наблюдавшиеся в срок или в последний час перед сроком; фигурными скобками обозначены явления, наблюдавшиеся между сроками (за 1-3 часа до срока); квадратными скобками обозначены град или гололедные отложения с указанием их диаметра в мм.
  • Облачность - указаны через наклонную черту общая и нижняя облачность в баллах и высота нижней границы облаков в метрах; квадратными скобками обозначены формы облаков: Ci - перистые, Cs - перисто-слоистые, Cc - перисто-кучевые, Ac - высококучевые, As - высокослоистые, Sc - слоисто-кучевые, Ns - слоисто-дождевые, Cu - кучевые, Cb - кучево-дождевые. Подробнее классификацию облаков см. в Атласе облаков (PDF).
  • T - Температура воздуха - температура, измеренная на высоте 2 м над землей.
  • Td - Температура точки росы - температура, при понижении до которой содержащийся в воздухе водяной пар достигнет насыщения.
  • f - Относительная влажность воздуха - влажноcть воздуха, измеренная на высоте 2 м над землей.
  • Te - Эффективная температура - температура, которую ощущает одетый по сезону человек в тени. Характеристика душности погоды. При расчете учитывается влияние влажности воздуха и скорости ветра на теплоощущения человека.
  • Tes - Эффективная температура на солнце - температура, которую ощущает человек, с поправкой на солнечный нагрев. Характеристика знойности погоды. Зависит от высоты солнца над горизонтом, облачности и скорости ветра. Ночью, в пасмурную погоду, а также при ветре 12 м/с и более поправка равна нулю.
  • P - Атмосферное давление - приведенное к уровню моря атмосферное давление.
  • Po - Атмосферное давление - измеренное на уровне метеостанции атмосферное давление.
  • Tmin - Минимальная температура - минимум температуры воздуха на высоте 2 м над землей.
  • Tmax - Максимальная температура - максимум температуры воздуха на высоте 2 м над землей.
  • R - Количество осадков - Количество выпавших осадков за период времени, мм. При наведении курсора мыши на число - период времени, за который выпало указанное количество осадков.
  • R24 - Количество осадков - Количество выпавших осадков за 24 часа, мм.
  • S - Снежный покров - Высота снежного покрова, см. При наведении курсора мыши на число - состояние снежного покрова и степень покрытия местности в баллах.